Regional Weather Roundup
Issued by NWS Wakefield, VA

Home | Current Version | Previous Version | Graphics & Text | Print | Product List | Glossary On
Versions: 1 2 3 4 5 6 7 8 9 10 11 12 13 14 15 16 17 18 19 20 21 22 23 24 25 26 27 28 29 30 31 32 33 34 35 36 37 38 39 40 41 42 43 44 45 46 47 48 49 50
000
ASUS41 KAKQ 261515
RWRAKQ

REGIONAL WEATHER ROUNDUP
NATIONAL WEATHER SERVICE WAKEFIELD VA
1100 AM EDT WED APR 26 2017

Note: "fair" indicates few or no clouds below 12,000 feet with no
significant weather and/or obstructions to visibility. * = Denotes
station may not report precipitation (e.g., rain,snow,etc.),
thunder or fog.

VAZ042-051-052>054-056-261600-
NORTHERN VIRGINIA

CITY           SKY/WX    TMP DP  RH WIND       PRES   REMARKS
WASH NATIONAL  CLOUDY    63  57  81 N10       29.80R
DULLES         CLOUDY    61  55  81 NW9       29.80R
FORT BELVOIR   CLOUDY    62  55  79 N6        29.80R
QUANTICO       PTSUNNY   64  58  80 NE8       29.80R
FREDERICKSBRG* PTSUNNY   66  59  77 NW8       29.78F
STAFFORD*      MOSUNNY   65  60  85 NW8       29.83F
WARRENTON      CLOUDY    67  55  63 CALM      29.79S
CULPEPER*      CLOUDY    65  58  75 CALM      29.80S
MANASSAS*        N/A     63  57  81 N7        29.80S
LEESBURG*      CLOUDY    61  61 100 N8        29.81S
WINCHESTER     CLOUDY    61  54  77 NW7       29.81R
FRONT ROYAL*   CLOUDY    63  55  77 CALM      29.80S
LURAY*         SUNNY     63  55  77 S3        29.81S
$$

VAZ048-049-060>072-079>083-261600-
CENTRAL AND SOUTH CENTRAL VIRGINIA

CITY           SKY/WX    TMP DP  RH WIND       PRES   REMARKS
RICHMOND       PTSUNNY   65  59  81 NW7       29.80S
CHESTERFIELD*  CLOUDY    66  45  45 NW7       29.82S
PETERSBURG*    CLOUDY    65  55  69 NW6       29.82S
HANOVER        MOSUNNY   66  57  72 NW7       29.81F
TAPPAHANNOCK*  CLOUDY    64  61  89 W6        29.81R
QUINTON*       CLOUDY    62  60  94 N5        29.79F
CHARLOTTSVILLE SUNNY     68  56  65 VRB3      29.80R
GORDONSVILLE*  SUNNY     66  57  71 CALM      29.80R
ORANGE*        MOSUNNY   66  55  68 CALM      29.80S
LOUISA*        PTSUNNY   70  61  73 W3        29.79S
BUMPASS*       PTSUNNY   65  57  77 CALM      29.79F
FARMVILLE*     SUNNY     69  57  65 CALM      29.80S
CREWE*         PTSUNNY   67  58  70 CALM      29.82R
FORT PICKETT*  CLOUDY    66  54  64 SW6       29.82R
CHASE CITY*    PTSUNNY   68  59  73 W5        29.82S
CLARKSVILLE*   FAIR      68  61  77 NW6       29.82F
SOUTH HILL*    MOSUNNY   67  59  75 W5        29.87F
LAWRENCEVILLE* PTSUNNY   68  57  67 NW3       29.82S
EMPORIA*       CLOUDY    64  55  72 SW6       29.84R
$$

VAZ088>098-261600-
SOUTHEAST VIRGINIA

CITY           SKY/WX    TMP DP  RH WIND       PRES   REMARKS
NORFOLK        CLOUDY    66  59  78 VRB6      29.80R
VIRGINIA BEACH CLOUDY    66  58  75 W8        29.79R
NORFOLK NAVAL  PTSUNNY   66  59  78 W10       29.81R
WEST POINT*    CLOUDY    63  59  88 W5        29.81S
SALUDA*        CLOUDY    62  60  93 W8        29.79R
NEWPORT NEWS   CLOUDY    65  59  81 W10       29.80R
LANGLEY AFB    CLOUDY    64  61  89 W9        29.79R
FORT EUSTIS    CLOUDY    65  59  81 NW10      29.78R
WILLIAMSBURG*  MOSUNNY   64  63  94 W3        29.81R
HR EXEC AP*    CLOUDY    64  59  82 W5        29.79R
FRANKLIN*      CLOUDY    64  58  79 NW8       29.82R
US460-WAKEFLD  CLOUDY    64  58  80 W5        29.81R
$$

VAZ020-022-025-037-045-261600-
WEST CENTRAL AND SOUTHWEST VIRGINIA

CITY           SKY/WX    TMP DP  RH WIND       PRES   REMARKS
STAUNTON*      PTSUNNY   60  54  82 CALM      29.84S
WAYNESBORO*    PTSUNNY   62  58  84 CALM      29.83R
HOT SPRINGS VA PTSUNNY   59  52  77 CALM      29.88F
LYNCHBURG      SUNNY     69  58  67 VRB5      29.83S
DANVILLE       MOSUNNY   69  62  78 W13       29.82F
SOUTH BOSTON*  FAIR      70  61  72 SW7       29.82S
MARTINSVILLE   SUNNY     70  58  66 SW6       29.85F
ROANOKE        PTSUNNY   69  59  70 CALM      29.84F
BLACKSBURG     SUNNY     66  57  73 W7        29.89S
DUBLIN*        PTSUNNY   70  54  56 W6        29.86F
MARION*        MOSUNNY   66  58  75 CALM      29.91S
HILLSVILLE*    SUNNY     61  58  89 CALM      29.87S
RICHLANDS*     FAIR      65  56  73 CALM      29.89F
WISE*          SUNNY     68  54  60 CALM      29.89F
ABINGDON*      SUNNY     68  60  74 W5        29.88F
$$

MDZ021>025-VAZ099-100-261600-
SOUTHERN MARYLAND AND THE DELMARVA PENINSULA

CITY           SKY/WX    TMP DP  RH WIND       PRES   REMARKS
PATUXENT RIVER CLOUDY    60  60 100 NW10      29.79R
BAY BRIDGE APT CLOUDY    57  57 100 NW7       29.79R FOG
LEONARDTOWN    CLOUDY    59  55  88 W6        29.81R
DOVER          CLOUDY    59  59 100 NW6       29.75R FOG
GEORGETOWN     CLOUDY    60  58  92 N3        29.76R FOG
EASTON         CLOUDY    59  57  94 N3        29.81R FOG
CAMBRIDGE      CLOUDY    59  57  94 NW7       29.78R FOG
SALISBURY      CLOUDY    59  59 100 W7        29.75R FOG
OCEAN CITY     CLOUDY    59  57  93 N7        29.75R
WALLOPS ISLAND CLOUDY    59  59 100 NW9       29.76R
ACCOMACK*      CLOUDY    60  55  84 W12       29.78R
$$

NCZ012>017-030>032-261600-
NORTH CENTRAL AND EASTERN NORTH CAROLINA

CITY           SKY/WX    TMP DP  RH WIND       PRES   REMARKS
ROANOKE RAPIDS FAIR      68  59  73 CALM      29.83S
RALEIGH        PTSUNNY   71  59  65 W9        29.85R
ELIZABETH CITY CLOUDY    64  60  87 W8        29.82R
AHOSKIE*         N/A     65  58  77 NW3       29.83S
EDENTON*       CLOUDY    66  60  79 W7        29.83R
CURRITUCK*     CLOUDY    65  62  89 W6        29.82R
KILL DEVIL HLS CLOUDY    63  62  98 W5        29.81R
MANTEO         CLOUDY    62  60  93 W9        29.83R
CAPE HATTERAS  CLOUDY    69  60  73 VRB7      29.83R
TARBORO*       NOT AVBL
GOLDSBORO      PTSUNNY   70  62  76 W6        29.84R
WASHINGTON     MOSUNNY   67  58  73 W9        29.83S
GREENVILLE     MOSUNNY   68  59  73 W8        29.86S
NEW BERN       MOSUNNY   70  61  73 NW8       29.85R
WILMINGTON     CLOUDY    72  60  66 W7        29.87R
$$

VAZ048-261600-
ELSEWHERE

CITY           SKY/WX    TMP DP  RH WIND       PRES   REMARKS
HARRISBURG PA  CLOUDY    59  57  93 CALM      29.80R
BALTIMORE      DRIZZLE   59  58  96 VRB6      29.79R FOG
ANNAPOLIS      CLOUDY    61  57  87 NW6       29.78R
ANDREWS AFB    CLOUDY    61  56  84 NW7       29.79R
PHILADELPHIA   CLOUDY    60  56  86 NE10G22   29.76R
HENDERSON NC   MOSUNNY   66  57  71 W7        29.84S
GREENSBORO     PTSUNNY   65  59  81 SW9       29.85S
ROCKY MOUNT    PTSUNNY   70  60  70 NW6       29.83S
$$

VAZ100-261600-
MARINE

STATION/POSITION TIME  TEMP    WIND        PRES    WAVE   SWELL
                       AIR SEA DIR/SP/G            HT/PER HT/PER
                 (UTC) (F)     (DEG/KT/KT) (MB)    (FT/S) (FT/S)
CAPE MAY NJ      1430   61 55   60/  3/  7 1006.3R
LEWES DE         1448   56 55  300/  8/  9 1007.3R
15NM E FENWICK I 1450   51 51  360/  6/  8 1007.4R   7/10   7/10
OCEAN-CITY-INLET 1442   54 53   30/  5/  6 1007.5R
WACHAPREAGUE VA  1442   60 59  240/  3/  7 1007.7R
THOMAS POINT MD  1500   58 56  330/  7/  9   N/A
GOOSES REEF MD   1500   58 53  330/  4/  6 1009.5    1
COVE POINT MD    1442   58     350/  9/ 10 1009.1R
SOLOMONS ISLAND  1442   60 60  310/  7/ 10   N/A
BISHOPS HEAD MD  1442   58 60  300/ 13/ 14 1008.6R
PINEY POINT MD   1448          330/ 11/ 11   N/A
POTOMAC MD       1500   60 60  300/ 12/ 16 1007.7    1/ 2
CAMBRIDGE MD     1442   58 62                N/A
LEWISETTA VA     1442   60 61  330/  9/ 12 1008.5R
RAPPAHANNOCK LGT 1448          270/ 12/ 13 1009.1R
STINGRAY PT      1450   61     310/ 12/ 14 1008.7R
YORK RVR RNG VA  1442   62     300/ 10/ 12 1008.2R
YORKTOWN VA      1442   62 63  300/  7/  9 1008.6R
JAMESTOWN VA     1500   62 67  280/  8/ 10   N/A     0
DOMINION TERM VA 1442   63     300/ 10/ 11 1009.0R
KIPTOPEKE VA     1436      60  290/ 11/ 14   N/A
CHES BAY BRIDGE  1442   62 61  290/ 10/ 11 1008.7R
CAPE HENRY VA    1442   62     280/ 10/ 13   N/A
WILLOUBY STN VA  1442   63     270/ 10/ 11 1009.8R
S CRANEY ISL VA  1442   64     270/  3/  7 1008.8R
CAPE HENRY BUOY  1442      56                N/A     4/ 9   2/11
1ST LANDING BUOY 1500   62 61              1009.0    2/ 5
CAPE CHARLES BUO 1451      56                N/A     4/ 9   2/11
64NM E OF VA BCH 1450   56 54  280/ 10/ 12 1008.9R   6/ 8   7/ 8
DUCK PIER NC     1442   63 59  270/ 10/ 13 1008.8R
44100 DUCK FRF   1405      56                N/A     5/ 9   2/11
44056 DUCK FRF   1430      59                N/A     4/11   2/11
OREGON INLET NC  1442   63 64  250/  9/ 12 1009.4R
HATTERAS NC      1442   66 68  270/ 13/ 15 1009.7R
DIAMOND SHLS NC  1450   67 77  270/ 10/ 12 1010.0R   7/ 9   7/ 9
CAPE LOOKOUT NC  1500   66     290/ 10/ 12 1010.5R
$$



USA.gov is the U.S. government's official web portal to all federal, state and local government web resources and services.